Change the Weather History Date:

Wednesday, February 26, 2014

  Actual Average Record
Temperature  
Mean Temperature 42 °F -  
Max Temperature 51 °F 48 °F 62 °F (2008)
Min Temperature 32 °F 29 °F 8 °F (2003)
Degree Days  
Heating Degree Days 24    
Moisture  
Dew Point 34 °F    
Average Humidity 74    
Maximum Humidity 100    
Minimum Humidity 50    
Precipitation  
Precipitation 0.00 in - - ()
Sea Level Pressure  
Sea Level Pressure 30.17 in    
Wind  
Wind Speed 6 mph ()    
Max Wind Speed 12 mph    
Max Gust Speed -    
Visibility 5.3 miles    
Events      
Averages and records for this station are not official NWS values.
T = Trace of Precipitation, MM = Missing Value Source: Averaged Metar Reports

Daily Weather History Graph

Daily Weather History Graph

Search for Another Location

Airport or City:

Trip Planner

Search our weather history database for the weather conditions in past years. The results will help you decide how hot, cold, wet, or windy it might be!

Date:

Astronomy

Feb. 26, 2014 Rise Set
Actual Time 6:29 AM CET 5:23 PM CET
Civil Twilight 5:58 AM CET 5:54 PM CET
Nautical Twilight 5:22 AM CET 6:29 PM CET
Astronomical Twilight 4:47 AM CET 7:05 PM CET
Moon 4:10 AM CET (2/26) 2:07 PM CET (2/26)
Length of Visible Light 11h 55m
Length of Day
10h 53m
Waning Crescent, 12% of the Moon is Illuminated
Feb 26
Waning Crescent
Mar 1
New
Mar 8
First Quarter
Mar 16
Full
Mar 24
Last Quarter

Hourly Weather History & Observations

Time (CET) Temp. Windchill Dew Point Humidity Pressure Visibility Wind Dir Wind Speed Gust Speed Precip Events Conditions
12:00 AM 39.2 °F 35.9 °F 35.6 °F 87% 30.18 in 5.0 mi East 4.6 mph - N/A   Partly Cloudy
12:30 AM 37.4 °F 33.8 °F 35.6 °F 93% 30.15 in 5.0 mi East 4.6 mph - N/A   Unknown
1:00 AM 37.4 °F 33.8 °F 35.6 °F 93% 30.18 in 5.0 mi ENE 4.6 mph - N/A   Unknown
1:30 AM 35.6 °F 30.7 °F 33.8 °F 93% 30.18 in 5.0 mi ENE 5.8 mph - N/A   Unknown
2:00 AM 33.8 °F 30.8 °F 32.0 °F 93% 30.18 in 5.0 mi Variable 3.5 mph - N/A   Unknown
2:30 AM 35.6 °F 31.7 °F 33.8 °F 93% 30.15 in 5.0 mi East 4.6 mph - N/A   Unknown
3:00 AM 33.8 °F 28.6 °F 32.0 °F 93% 30.15 in 5.0 mi ENE 5.8 mph - N/A   Unknown
3:30 AM 32.0 °F - 32.0 °F 100% 30.15 in 5.0 mi Variable 1.2 mph - N/A   Unknown
4:00 AM 33.8 °F 30.8 °F 32.0 °F 93% 30.18 in 5.0 mi Variable 3.5 mph - N/A   Partly Cloudy
4:30 AM 32.0 °F 26.4 °F 32.0 °F 100% 30.15 in 5.0 mi East 5.8 mph - N/A   Partly Cloudy
5:00 AM 32.0 °F 28.7 °F 30.2 °F 93% 30.18 in 5.0 mi Variable 3.5 mph - N/A   Unknown
5:30 AM 32.0 °F 26.4 °F 30.2 °F 93% 30.18 in - East 5.8 mph - N/A   Clear
6:00 AM 32.0 °F 24.8 °F 30.2 °F 93% 30.18 in - East 8.1 mph - N/A   Clear
6:30 AM 32.0 °F 25.6 °F 28.4 °F 87% 30.18 in - ESE 6.9 mph - N/A   Clear
7:00 AM 32.0 °F 25.6 °F 30.2 °F 93% 30.18 in - East 6.9 mph - N/A   Clear
7:30 AM 33.8 °F 27.0 °F 30.2 °F 87% 30.21 in - East 8.1 mph - N/A   Clear
8:00 AM 37.4 °F 32.8 °F 32.0 °F 81% 30.21 in - ESE 5.8 mph - N/A   Clear
8:30 AM 37.4 °F 31.4 °F 32.0 °F 81% 30.21 in - SE 8.1 mph - N/A   Clear
9:00 AM 41.0 °F 37.1 °F 32.0 °F 70% 30.21 in - ESE 5.8 mph - N/A   Clear
9:30 AM 42.8 °F 38.0 °F 33.8 °F 70% 30.21 in - SE 8.1 mph - N/A   Clear
10:00 AM 44.6 °F 39.7 °F 33.8 °F 66% 30.21 in - SE 9.2 mph - N/A   Clear
10:30 AM 46.4 °F 41.9 °F 33.8 °F 62% 30.18 in - SSE 9.2 mph - N/A   Clear
11:00 AM 48.2 °F - 33.8 °F 58% 30.18 in - SSE 10.4 mph - N/A   Clear
11:30 AM 50.0 °F - 33.8 °F 54% 30.18 in - SSE 11.5 mph - N/A   Clear
12:00 PM 50.0 °F - 33.8 °F 54% 30.18 in - SSE 10.4 mph - N/A   Clear
12:30 PM 50.0 °F - 32.0 °F 50% 30.18 in 6.2 mi SSE 11.5 mph - N/A   Partly Cloudy
1:00 PM 51.8 °F - 33.8 °F 50% 30.15 in 6.2 mi SSE 10.4 mph - N/A   Partly Cloudy
1:30 PM 51.8 °F - 33.8 °F 50% 30.15 in 6.2 mi SE 8.1 mph - N/A   Partly Cloudy
2:00 PM 51.8 °F - 33.8 °F 50% 30.15 in - SE 9.2 mph - N/A   Clear
2:30 PM 51.8 °F - 35.6 °F 54% 30.15 in - SE 10.4 mph - N/A   Clear
3:00 PM 51.8 °F - 33.8 °F 50% 30.15 in - SE 10.4 mph - N/A   Clear
3:30 PM 51.8 °F - 35.6 °F 54% 30.15 in - SE 10.4 mph - N/A   Clear
4:00 PM 51.8 °F - 35.6 °F 54% 30.15 in - SE 10.4 mph - N/A   Clear
4:30 PM 50.0 °F - 35.6 °F 58% 30.15 in - ESE 11.5 mph - N/A   Clear
5:00 PM 48.2 °F - 35.6 °F 62% 30.15 in - ESE 10.4 mph - N/A   Clear
5:30 PM 48.2 °F - 35.6 °F 62% 30.15 in - ESE 9.2 mph - N/A   Clear
6:00 PM 46.4 °F 41.5 °F 35.6 °F 66% 30.15 in - ESE 10.4 mph - N/A   Clear
6:30 PM 42.8 °F 37.5 °F 35.6 °F 76% 30.15 in - East 9.2 mph - N/A   Clear
7:00 PM 42.8 °F 37.5 °F 35.6 °F 76% 30.15 in - East 9.2 mph - N/A   Clear
7:30 PM 42.8 °F 37.0 °F 35.6 °F 76% 30.15 in - ESE 10.4 mph - N/A   Clear
8:00 PM 42.8 °F 38.0 °F 35.6 °F 76% 30.15 in - East 8.1 mph - N/A   Clear
8:30 PM 44.6 °F 39.7 °F 35.6 °F 71% 30.15 in - ESE 9.2 mph - N/A   Clear
9:00 PM 44.6 °F 40.2 °F 35.6 °F 71% 30.18 in - ESE 8.1 mph - N/A   Clear
9:30 PM 42.8 °F 38.6 °F 35.6 °F 76% 30.18 in - ESE 6.9 mph - N/A   Clear
10:00 PM 42.8 °F 38.6 °F 35.6 °F 76% 30.18 in - ESE 6.9 mph - N/A   Clear
10:30 PM 42.8 °F 39.3 °F 35.6 °F 76% 30.18 in - East 5.8 mph - N/A   Clear
11:00 PM 42.8 °F 38.0 °F 37.4 °F 81% 30.18 in - East 8.1 mph - N/A   Clear
11:30 PM 42.8 °F 38.6 °F 37.4 °F 81% 30.18 in - East 6.9 mph - N/A   Clear